Inquirer Daily News

Weather

Get conditions and forecasts for any City, State, ZIP code or Country:  
Trenton, NJ
on Monday, March 4, 2013

Monday
Previous Day Next Day
Daily Summary
 ActualAverageRecord
Temperature
Mean Temperature °F 38°F  
Max Temperature 42°F 47°F 74°F (1974)
Min Temperature 28°F 29°F 1°F (1868)
Degree Days
Heating Degree Days 30 27  
Month to date heating degree days 118 110  
Since 1 July heating degree days 3719 3924  
Cooling Degree Days 0 0  
Month to date cooling degree days 0 0  
Year to date cooling degree days 0 0  
Moisture
Dew Point 17°F   
Average Humidity 49    
Maximum Humidity 58    
Minimum Humidity 40    
Precipitation
Precipitation 0.00 in 0.11 in 1.40 in (1906)
Month to date precipitation T 0.46  
Year to date precipitation 4.62 5.93  
Wind
Wind Speed 13 mph   
Max Wind Speed 22 mph   
Max Gust Speed 30 mph   
Visibility 10 miles   
Events     

Key: T is trace of precipitation, MM is missing value
Source: NWS Daily Summary
Time(EST)TemperatureDew PointHumidity Pressure Visibility Wind DirectionWind SpeedGust SpeedPrecipitationEvents Conditions
12:53 AM 28.9°F 15.1°F 56% 29.79 in 10.0 miles North 12.7 mph - N/A   Partly Cloudy
1:53 AM 28.9°F 16.0°F 58% 29.80 in 10.0 miles North 10.4 mph - N/A   Mostly Cloudy
2:53 AM 28.9°F 15.1°F 56% 29.80 in 10.0 miles NW 9.2 mph 17.3 mph N/A   Overcast
3:53 AM 28.9°F 15.1°F 56% 29.80 in 10.0 miles NNW 10.4 mph - N/A   Overcast
4:53 AM 28.9°F 16.0°F 58% 29.81 in 10.0 miles NNW 8.1 mph - N/A   Overcast
5:53 AM 28.9°F 16.0°F 58% 29.82 in 10.0 miles NNW 11.5 mph 20.7 mph N/A   Overcast
6:53 AM 28.9°F 16.0°F 58% 29.83 in 10.0 miles NNW 8.1 mph 18.4 mph N/A   Overcast
7:53 AM 30.0°F 16.0°F 56% 29.84 in 10.0 miles NNW 17.3 mph 24.2 mph N/A   Scattered Clouds
8:53 AM 32.0°F 16.0°F 52% 29.84 in 10.0 miles North 15.0 mph 23.0 mph N/A   Mostly Cloudy
9:53 AM 33.1°F 15.1°F 48% 29.85 in 10.0 miles NW 16.1 mph 26.5 mph N/A   Scattered Clouds
10:53 AM 35.1°F 15.1°F 44% 29.85 in 10.0 miles NNW 19.6 mph 26.5 mph N/A   Clear
11:53 AM 36.0°F 16.0°F 44% 29.84 in 10.0 miles NW 15.0 mph 24.2 mph N/A   Clear
12:53 PM 39.0°F 18.0°F 43% 29.82 in 10.0 miles North 15.0 mph 25.3 mph N/A   Clear
1:53 PM 39.0°F 18.0°F 43% 29.81 in 10.0 miles NNW 17.3 mph 25.3 mph N/A   Clear
2:53 PM 41.0°F 19.0°F 41% 29.80 in 10.0 miles NNW 19.6 mph 27.6 mph N/A   Clear
3:53 PM 39.9°F 17.1°F 40% 29.81 in 10.0 miles NW 17.3 mph 26.5 mph N/A   Clear
4:53 PM 39.9°F 18.0°F 41% 29.82 in 10.0 miles NW 16.1 mph 24.2 mph N/A   Clear
5:53 PM 37.9°F 18.0°F 45% 29.84 in 10.0 miles NW 13.8 mph 19.6 mph N/A   Clear
6:53 PM 36.0°F 18.0°F 48% 29.87 in 10.0 miles WNW 10.4 mph 18.4 mph N/A   Clear
7:53 PM 35.1°F 19.0°F 52% 29.89 in 10.0 miles NW 8.1 mph - N/A   Partly Cloudy
8:53 PM 35.1°F 19.0°F 52% 29.90 in 10.0 miles NW 8.1 mph - N/A   Overcast
9:53 PM 35.1°F 19.9°F 54% 29.91 in 10.0 miles NNW 9.2 mph 21.9 mph N/A   Partly Cloudy
10:53 PM 34.0°F 19.9°F 56% 29.92 in 10.0 miles North 9.2 mph - N/A   Scattered Clouds
11:53 PM 33.1°F 19.9°F 59% 29.94 in 10.0 miles North 9.2 mph - N/A   Mostly Cloudy
Astronomy
Sunrise:06:27 AM (EST) Moon Rise:12:35 AM (EST)3/4
Sunset:05:54 PM (EST) Moon Set:10:33 AM (EST)3/4
Moon Phase
Mar. 04 Mar. 04 Mar. 11 Mar. 19 Mar. 27

Copyright © 2014 The Weather Underground, Inc.